{"data":{"norad_id":56838,"epoch":"2026-09-20T14:09:50.178240Z","epoch_age_seconds":109807,"freshness":"FRESH","line1":"1 56838U 23079R   26263.59016410 -.00003046  00000+0 -10118-3 0  9994","line2":"2 56838  43.0000  13.2454 0000606 234.5126 125.5669 15.27595810183552","mean_motion":15.2759581,"eccentricity":6.06e-5,"inclination_deg":43,"raan_deg":13.2454,"arg_perigee_deg":234.5126,"mean_anomaly_deg":125.5669,"bstar":-0.00010118,"rev_number":18355,"period_min":94.265773090854,"perigee_km":482.58597061174,"apogee_km":483.41754062893,"semimajor_km":6861.1387556203,"source":"CELESTRAK","updated_at":"2026-09-21T09:00:33.517456Z"}}